Buckeye, AZ

6:05 AM MST on June 25, 2017 (GMT -0700)
Buckeye Municipal

Weather History for KBXK - November, 2013

Change the Weather History Date:

Saturday, November 9, 2013

  Actual Average (KGYR) Record (KGYR)
Temperature  
Mean Temperature 63 °F -  
Max Temperature 80 °F 74 °F 89 °F (1996)
Min Temperature 46 °F 49 °F 41 °F (2000)
Degree Days  
Heating Degree Days 2    
Growing Degree Days 13 (Base 50)    
Moisture  
Dew Point 35 °F    
Average Humidity 37    
Maximum Humidity 62    
Minimum Humidity 18    
Precipitation  
Precipitation 0.00 in - - ()
Sea Level Pressure  
Sea Level Pressure 30.03 in    
Wind  
Wind Speed 5 mph (NNE)    
Max Wind Speed 14 mph    
Max Gust Speed -    
Visibility 10 miles    
Events      
Averages and records for this station are not official NWS values.
T = Trace of Precipitation, MM = Missing Value Source: NWS Daily Summary

Daily Weather History Graph

Daily Weather History Graph

Search for Another Location

Airport or City:

Trip Planner

Search our weather history database for the weather conditions in past years. The results will help you decide how hot, cold, wet, or windy it might be!

Date:

Astronomy

Nov. 09, 2013 Rise Set
Actual Time 6:56 AM MST 5:31 PM MST
Civil Twilight 6:30 AM MST 5:58 PM MST
Nautical Twilight 6:01 AM MST 6:27 PM MST
Astronomical Twilight 5:31 AM MST 6:57 PM MST
Moon 12:39 PM MST (11/9) No Moon Set
Length of Visible Light 11h 27m
Length of Day
10h 35m
Waxing Crescent, 45% of the Moon is Illuminated
Nov 9
Waxing Crescent
Nov 9
First Quarter
Nov 17
Full
Nov 25
Last Quarter
Dec 2
New

Hourly Weather History & Observations

Time (MST) Temp. Dew Point Humidity Pressure Visibility Wind Dir Wind Speed Gust Speed Precip Events Conditions
12:15 AM 55.4 °F 32.0 °F 41% 30.00 in 10.0 mi North 3.5 mph - N/A   Clear
12:35 AM 55.4 °F 32.0 °F 41% 30.00 in 10.0 mi North 4.6 mph - N/A   Clear
12:55 AM 55.4 °F 32.0 °F 41% 30.00 in 10.0 mi NNW 6.9 mph - N/A   Clear
1:15 AM 53.6 °F 32.0 °F 44% 30.00 in 10.0 mi NNW 6.9 mph - N/A   Clear
1:35 AM 53.6 °F 32.0 °F 44% 30.00 in 10.0 mi North 4.6 mph - N/A   Clear
1:55 AM 53.6 °F 32.0 °F 44% 30.00 in 10.0 mi Calm Calm - N/A   Clear
2:15 AM 51.8 °F 32.0 °F 47% 30.00 in 10.0 mi NNW 4.6 mph - N/A   Clear
2:35 AM 50.0 °F 32.0 °F 50% 30.00 in 10.0 mi NNW 4.6 mph - N/A   Clear
2:55 AM 50.0 °F 32.0 °F 50% 30.00 in 10.0 mi NNW 5.8 mph - N/A   Clear
3:15 AM 50.0 °F 32.0 °F 50% 30.00 in 10.0 mi NW 4.6 mph - N/A   Clear
3:35 AM 50.0 °F 32.0 °F 50% 30.00 in 10.0 mi NNW 4.6 mph - N/A   Clear
3:55 AM 50.0 °F 32.0 °F 50% 30.01 in 10.0 mi North 3.5 mph - N/A   Clear
4:15 AM 48.2 °F 32.0 °F 54% 30.01 in 10.0 mi North 3.5 mph - N/A   Clear
4:35 AM 48.2 °F 32.0 °F 54% 30.01 in 10.0 mi North 3.5 mph - N/A   Mostly Cloudy
4:55 AM 48.2 °F 32.0 °F 54% 30.02 in 10.0 mi Calm Calm - N/A   Mostly Cloudy
5:15 AM 50.0 °F 33.8 °F 54% 30.03 in 10.0 mi Calm Calm - N/A   Overcast
5:35 AM 48.2 °F 33.8 °F 58% 30.03 in 10.0 mi Calm Calm - N/A   Mostly Cloudy
5:55 AM 46.4 °F 33.8 °F 62% 30.04 in 10.0 mi Calm Calm - N/A   Clear
6:15 AM 48.2 °F 32.0 °F 54% 30.04 in 10.0 mi Calm Calm - N/A   Clear
6:35 AM 48.2 °F 33.8 °F 58% 30.05 in 10.0 mi Calm Calm - N/A   Clear
6:55 AM 48.2 °F 32.0 °F 54% 30.05 in 10.0 mi Calm Calm - N/A   Clear
7:15 AM 48.2 °F 33.8 °F 58% 30.05 in 10.0 mi North 5.8 mph - N/A   Clear
7:35 AM 50.0 °F 32.0 °F 50% 30.06 in 10.0 mi North 4.6 mph - N/A   Clear
7:55 AM 53.6 °F 33.8 °F 47% 30.07 in 10.0 mi NNE 4.6 mph - N/A   Clear
8:15 AM 57.2 °F 35.6 °F 44% 30.08 in 10.0 mi Calm Calm - N/A   Clear
8:35 AM 59.0 °F 37.4 °F 45% 30.08 in 10.0 mi Calm Calm - N/A   Clear
8:55 AM 59.0 °F 39.2 °F 48% 30.09 in 10.0 mi Calm Calm - N/A   Clear
9:15 AM 64.4 °F 37.4 °F 37% 30.09 in 10.0 mi East 8.1 mph - N/A   Clear
9:35 AM 68.0 °F 35.6 °F 30% 30.09 in 10.0 mi East 9.2 mph - N/A   Clear
9:55 AM 68.0 °F 35.6 °F 30% 30.09 in 10.0 mi East 10.4 mph - N/A   Clear
10:15 AM 71.6 °F 37.4 °F 29% 30.09 in 10.0 mi ESE 9.2 mph - N/A   Clear
10:35 AM 73.4 °F 35.6 °F 25% 30.09 in 10.0 mi East 13.8 mph - N/A   Clear
10:55 AM 75.2 °F 32.0 °F 21% 30.08 in 10.0 mi East 13.8 mph - N/A   Clear
11:15 AM 75.2 °F 33.8 °F 22% 30.08 in 10.0 mi East 11.5 mph - N/A   Clear
11:35 AM 75.2 °F 33.8 °F 22% 30.08 in 10.0 mi East 11.5 mph - N/A   Clear
11:55 AM 75.2 °F 35.6 °F 24% 30.07 in 10.0 mi East 10.4 mph - N/A   Clear
12:15 PM 77.0 °F 35.6 °F 22% 30.06 in 10.0 mi East 10.4 mph - N/A   Clear
12:35 PM 77.0 °F 35.6 °F 22% 30.06 in 10.0 mi ESE 10.4 mph - N/A   Clear
12:55 PM 77.0 °F 35.6 °F 22% 30.05 in 10.0 mi ESE 9.2 mph - N/A   Clear
1:15 PM 77.0 °F 35.6 °F 22% 30.04 in 10.0 mi ESE 6.9 mph - N/A   Clear
1:35 PM 78.8 °F 35.6 °F 21% 30.03 in 10.0 mi ESE 8.1 mph - N/A   Clear
1:55 PM 80.6 °F 35.6 °F 20% 30.02 in 10.0 mi SE 5.8 mph - N/A   Clear
2:15 PM 80.6 °F 33.8 °F 18% 30.02 in 10.0 mi Calm Calm - N/A   Clear
2:35 PM 80.6 °F 35.6 °F 20% 30.01 in 10.0 mi ESE 4.6 mph - N/A   Clear
2:55 PM 80.6 °F 35.6 °F 20% 30.01 in 10.0 mi SE 3.5 mph - N/A   Clear
3:15 PM 80.6 °F 35.6 °F 20% 30.01 in 10.0 mi Calm Calm - N/A   Clear
3:35 PM 80.6 °F 35.6 °F 20% 30.00 in 10.0 mi Calm Calm - N/A   Clear
3:55 PM 80.6 °F 35.6 °F 20% 30.00 in 10.0 mi Calm Calm - N/A   Clear
4:15 PM 80.6 °F 37.4 °F 21% 30.00 in 10.0 mi Calm Calm - N/A   Clear
4:35 PM 80.6 °F 37.4 °F 21% 30.00 in 10.0 mi SSW 3.5 mph - N/A   Clear
4:55 PM 80.6 °F 37.4 °F 21% 30.00 in 10.0 mi SSW 3.5 mph - N/A   Clear
5:15 PM 77.0 °F 39.2 °F 26% 30.00 in 10.0 mi South 3.5 mph - N/A   Clear
5:35 PM 75.2 °F 41.0 °F 29% 30.00 in 10.0 mi Calm Calm - N/A   Clear
5:55 PM 73.4 °F 41.0 °F 31% 30.00 in 8.0 mi South 3.5 mph - N/A   Clear
6:15 PM 71.6 °F 41.0 °F 33% 30.01 in 10.0 mi Calm Calm - N/A   Clear
6:35 PM 68.0 °F 39.2 °F 35% 30.01 in 10.0 mi Calm Calm - N/A   Clear
7:35 PM 66.2 °F 35.6 °F 32% 30.03 in 10.0 mi North 5.8 mph - N/A   Clear
7:55 PM 64.4 °F 35.6 °F 34% 30.03 in 10.0 mi North 8.1 mph - N/A   Clear
8:15 PM 64.4 °F 35.6 °F 34% 30.03 in 10.0 mi North 8.1 mph - N/A   Clear
8:35 PM 62.6 °F 33.8 °F 34% 30.03 in 10.0 mi North 8.1 mph - N/A   Clear
8:55 PM 62.6 °F 32.0 °F 32% 30.04 in 10.0 mi North 6.9 mph - N/A   Clear
9:15 PM 60.8 °F 32.0 °F 34% 30.04 in 10.0 mi North 6.9 mph - N/A   Clear
9:35 PM 59.0 °F 33.8 °F 39% 30.05 in 10.0 mi NNW 8.1 mph - N/A   Clear
9:55 PM 59.0 °F 33.8 °F 39% 30.05 in 10.0 mi NNW 5.8 mph - N/A   Clear
10:15 PM 59.0 °F 32.0 °F 36% 30.06 in 10.0 mi NNW 6.9 mph - N/A   Clear
10:35 PM 59.0 °F 32.0 °F 36% 30.06 in 10.0 mi NNW 8.1 mph - N/A   Clear
10:55 PM 59.0 °F 33.8 °F 39% 30.06 in 10.0 mi NNW 9.2 mph - N/A   Clear
11:15 PM 59.0 °F 33.8 °F 39% 30.05 in 10.0 mi NNW 8.1 mph - N/A   Clear
11:35 PM 59.0 °F 33.8 °F 39% 30.05 in 10.0 mi NNW 8.1 mph - N/A   Clear
11:55 PM 59.0 °F 33.8 °F 39% 30.05 in 10.0 mi NNW 9.2 mph - N/A   Clear